[[{"header":{"parameterUnit":"m.s-1","parameterCategory":1,"la1":30.2991,"la2":30.254,"lo1":-89.0895,"lo2":-89.0444,"dy":0.0017,"dx":0.0017,"nx":28,"ny":28,"refTime":"2025-07-10T21:00:00:Z","depth":0,"parameterNumber":2,"parameterNumberName":"U-component_of_WINDS"},"data":[0,0,0,0,0,0,0,0,0,0,0,0,0,0,0,0,0,0,0,0,0,0,0,0,0,0,0,0,0,0,0,0,0,0,0,0,0,0,0,0,0,0,0,0,0,0,0,0,0,0,0,0,0,0,0,0,0,0,4.2917,4.2918,0,4.2997,4.2998,4.2999,4.2908,4.2905,4.2901,4.2898,4.2981,4.2986,4.2991,0,0,0,0,0,0,0,0,0,0,0,0,0,4.2683,4.2688,4.2917,4.2918,4.2919,4.2997,4.2998,4.2999,4.2909,4.2905,4.2901,4.2897,4.2979,4.2985,4.2992,0,0,0,0,0,0,0,0,0,0,0,0,0,4.2776,4.2689,4.2917,4.2883,4.2881,4.2997,4.2998,4.3,4.291,4.2905,4.29,4.2895,4.2977,4.2985,4.2993,4.3145,0,0,4.3017,4.3021,0,0,0,0,0,0,0,0,4.2771,4.2785,4.2887,4.2886,4.2884,4.2937,4.2946,4.3048,4.2911,4.2899,4.2898,4.2892,4.297,4.2979,4.3005,4.3149,4.3153,4.3018,4.3023,4.3026,4.3029,0,0,0,0,0,0,0,4.2765,4.2781,4.2949,4.2889,4.2887,4.2863,4.2871,4.2965,4.2963,4.29,4.2893,4.2904,4.2968,4.2997,4.3006,4.3154,4.3018,4.3025,4.303,4.3033,4.3421,4.3426,0,0,0,0,0,0,4.2762,4.2776,4.2946,4.2951,4.2813,4.2872,4.288,4.2925,4.2961,4.2962,4.2908,4.2899,4.2986,4.2997,4.3009,4.3185,4.3026,4.3034,4.3038,4.3415,4.3422,4.3428,0,0,0,0,0,0,4.2757,4.2778,4.2943,4.2862,4.2881,4.2881,4.2933,4.293,4.2958,4.2968,4.2967,4.2938,4.2983,4.2997,4.311,4.3187,4.3037,4.3045,4.3409,4.3417,4.3425,4.3542,0,0,0,0,0,0,4.2751,4.2777,4.2836,4.2864,4.2886,4.3045,4.2938,4.2935,4.2973,4.2962,4.2996,4.2996,4.298,4.3099,4.3119,4.3195,4.3051,4.3402,4.3413,4.3422,4.3531,4.3553,4.3572,0,0,0,0,0,4.2743,4.2867,4.2839,4.286,4.2959,4.3049,4.3061,4.304,4.2979,4.3037,4.3042,4.2995,4.3176,4.3111,4.3133,4.3213,4.3397,4.341,4.3421,4.3522,4.3549,4.3571,0,0,0,0,0,0,4.2849,4.287,4.284,4.2977,4.3012,4.3034,4.3106,4.307,4.3122,4.311,4.3081,4.3089,4.3208,4.3222,4.315,4.3359,4.3276,4.3294,4.3345,4.3371,4.3391,4.3383,4.3058,0,0,0,0,0,4.2889,4.296,4.2975,4.3094,4.3113,4.3107,4.3145,4.3125,4.316,4.3174,4.3188,4.3224,4.3287,4.3331,4.3391,4.3534,4.3537,4.3599,4.3619,4.3636,4.365,4.3721,4.3747,4.3468,4.3468,4.3468,0,0,4.2971,4.2991,4.3038,4.3115,4.314,4.3213,4.312,4.3203,4.3255,4.3187,4.3293,4.3305,4.3342,4.3469,4.3526,4.3484,4.3728,4.3652,4.3665,4.367,4.3736,4.3763,4.3786,4.3476,4.3475,4.3474,0,0,4.3156,4.3181,4.3279,4.3306,4.3343,4.3338,4.3362,4.3389,4.3393,4.35,4.3448,4.3511,4.3624,4.365,4.3679,4.3871,4.3828,4.3892,4.3997,4.4066,4.4088,4.4107,4.4171,4.4195,4.3906,4.3907,4.3907,0,4.3252,4.3361,4.3336,4.342,4.3453,4.3394,4.3493,4.3519,4.3576,4.3599,4.3553,4.3689,4.3711,4.384,4.3887,4.3914,4.3937,4.3886,4.4087,4.4106,4.4124,4.4184,4.4209,4.3914,4.3913,4.3912,4.3912,0,4.3475,4.3551,4.3627,4.3679,4.3722,4.3814,4.3801,4.3847,4.3823,4.3822,4.3928,4.3952,4.4012,4.4043,4.4021,4.4169,4.4141,4.4092,4.4007,4.4158,4.4213,4.4237,4.3924,4.3922,4.3919,4.3918,0,0,4.3729,4.3765,4.3793,4.3814,4.385,4.3907,4.3995,4.4054,4.4092,4.4133,4.4202,4.4297,4.425,4.4283,4.4263,4.4325,4.4469,4.4267,4.4267,4.43,4.4627,4.4661,4.4688,4.4442,4.4447,4.445,4.4622,0,4.3911,4.4061,4.404,4.4184,4.4251,4.4194,4.427,4.4299,4.43,4.4356,4.4358,4.4423,4.4359,4.4377,4.4436,4.4439,4.4534,4.4427,4.4504,4.4507,4.4491,4.4718,4.4755,4.4917,4.4645,4.4648,4.4651,0,4.4143,4.4189,4.4339,4.436,4.4388,4.4456,4.4505,4.4561,4.4592,4.4588,4.4623,4.4592,4.4676,4.4593,4.4707,4.4634,4.4665,4.4671,4.4676,4.4679,4.4585,4.4723,4.4968,4.499,4.4686,4.4683,4.4681,0,4.4306,4.4407,4.4508,4.4529,4.4558,4.4606,4.462,4.4646,4.4681,4.4725,4.4747,4.4801,4.483,4.4871,4.4854,4.4795,4.497,4.4886,4.4966,4.4966,4.5002,4.4999,4.5251,4.503,4.503,4.5029,4.5029,0,4.4509,4.4602,4.4581,4.4643,4.4744,4.4718,4.4819,4.4826,4.4849,4.491,4.4867,4.4924,4.49,4.4956,4.4943,4.5037,4.5052,4.5049,4.5043,4.505,4.505,4.5066,4.5053,4.5035,4.5034,4.5033,4.5032,0,4.4707,4.4698,4.4803,4.4821,4.4828,4.4901,4.4916,4.4972,4.497,4.5047,4.5064,4.5059,4.5122,4.5109,4.518,4.5171,4.5287,4.527,4.5276,4.527,4.5349,4.534,4.5616,4.5649,4.5411,4.5414,4.5416,0,4.4835,4.4904,4.4929,4.4966,4.4983,4.5044,4.5079,4.5056,4.5093,4.5132,4.5183,4.5242,4.5288,4.5391,4.5393,4.5445,4.5426,4.552,4.5434,4.5437,4.5421,4.5416,4.542,4.5535,4.5538,4.5541,4.5542,0,4.5061,4.5051,4.5103,4.5153,4.5195,4.5233,4.5267,4.53,4.5279,4.5324,4.5386,4.5422,4.5492,4.5549,4.5597,4.561,4.5572,4.557,4.559,4.5595,4.5593,4.559,4.5317,4.5563,4.5561,4.5559,4.5558,4.5557,4.5224,4.5281,4.5305,4.5363,4.5386,4.5418,4.547,4.5473,4.5525,4.5579,4.5563,4.5633,4.5659,4.5719,4.5738,4.5792,4.5756,4.5788,4.5794,4.5801,4.5808,4.5589,4.5801,4.5801,4.58,4.5799,4.5799,0,4.5442,4.5455,4.5509,4.5556,4.56,4.5561,4.5596,4.5635,4.5697,4.5725,4.5769,4.584,4.5895,4.5901,4.5952,4.5993,4.5976,4.6007,4.6001,4.6004,4.5839,4.5814,4.6019,4.6019,4.6019,4.6019,4.6019,4.6019,4.5561,4.5653,4.5647,4.5749,4.5761,4.5829,4.5851,4.5879,4.59,4.598,4.6025,4.6028,4.6046,4.6097,4.6145,4.6145,4.6164,4.62,4.6193,4.6038,4.6016,4.5995,4.5971,4.6206,4.6206,4.6352,4.6354,4.6355]},{"header":{"parameterUnit":"m.s-1","parameterCategory":1,"la1":30.2991,"la2":30.254,"lo1":-89.0895,"lo2":-89.0444,"dy":0.0017,"dx":0.0017,"nx":28,"ny":28,"refTime":"2025-07-10T21:00:00:Z","depth":0,"parameterNumber":3,"parameterNumberName":"V-component_of_WINDS"},"data":[0,0,0,0,0,0,0,0,0,0,0,0,0,0,0,0,0,0,0,0,0,0,0,0,0,0,0,0,0,0,0,0,0,0,0,0,0,0,0,0,0,0,0,0,0,0,0,0,0,0,0,0,0,0,0,0,0,0,3.9591,3.9592,0,3.9676,3.9676,3.9677,3.9638,3.9636,3.9634,3.9632,3.9716,3.972,3.9724,0,0,0,0,0,0,0,0,0,0,0,0,0,3.9391,3.9395,3.9591,3.9592,3.9593,3.9675,3.9677,3.9678,3.9638,3.9636,3.9633,3.9631,3.9714,3.9719,3.9724,0,0,0,0,0,0,0,0,0,0,0,0,0,3.9477,3.9396,3.9591,3.9583,3.9584,3.9675,3.9677,3.9678,3.9639,3.9636,3.9633,3.963,3.9713,3.9719,3.9725,3.9828,0,0,3.9744,3.9747,0,0,0,0,0,0,0,0,3.9472,3.9484,3.9583,3.9584,3.9585,3.9643,3.9637,3.9728,3.964,3.9618,3.9632,3.9628,3.9694,3.9702,3.9724,3.9832,3.9835,3.9745,3.9749,3.9751,3.9753,0,0,0,0,0,0,0,3.9466,3.9481,3.9624,3.9585,3.9586,3.9575,3.9583,3.9654,3.9673,3.962,3.9617,3.9628,3.9694,3.9718,3.9726,3.9837,3.9745,3.975,3.9754,3.9757,4.0029,4.0032,0,0,0,0,0,0,3.9461,3.9476,3.9622,3.9627,3.952,3.9581,3.959,3.9627,3.9672,3.9676,3.963,3.9625,3.9709,3.9719,3.9729,3.985,3.9751,3.9757,3.9761,4.0026,4.003,4.0034,0,0,0,0,0,0,3.9457,3.9475,3.9618,3.9551,3.9568,3.9588,3.9629,3.9631,3.9656,3.968,3.9683,3.9652,3.9707,3.972,3.9803,3.9852,3.976,3.9766,4.0022,4.0027,4.0032,4.0094,0,0,0,0,0,0,3.9451,3.9473,3.9514,3.9552,3.9572,3.9692,3.9633,3.9635,3.9667,3.9661,3.9701,3.9705,3.9705,3.9794,3.9809,3.9859,3.9771,4.0017,4.0024,4.003,4.0087,4.0101,4.0112,0,0,0,0,0,3.9444,3.9528,3.9516,3.9534,3.9623,3.9695,3.9707,3.9706,3.9671,3.9711,3.9726,3.9704,3.9845,3.9803,3.982,3.9872,4.0014,4.0022,4.003,4.0082,4.0098,4.0111,0,0,0,0,0,0,3.9494,3.9533,3.952,3.9619,3.9654,3.9689,3.9739,3.9724,3.9769,3.9762,3.9759,3.9768,3.9854,3.9872,3.9824,3.9972,3.9924,3.9935,3.9958,3.9973,3.9985,3.9978,3.9776,0,0,0,0,0,3.9517,3.9574,3.9604,3.9688,3.9706,3.972,3.9751,3.9748,3.9784,3.9799,3.982,3.9855,3.9907,3.9941,3.9991,4.009,4.0097,4.0135,4.0147,4.0156,4.0166,4.0217,4.0233,4.0059,4.0059,4.0059,0,0,3.9564,3.9592,3.9628,3.9698,3.9725,3.9782,3.9733,3.9796,3.9837,3.9808,3.9887,3.9904,3.9943,4.0034,4.0075,4.0051,4.0216,4.0166,4.0174,4.0178,4.0227,4.0243,4.0258,4.0064,4.0063,4.0062,0,0,3.9678,3.9706,3.9778,3.9806,3.9848,3.9856,3.9873,3.991,3.992,4.0,3.9978,4.0027,4.0117,4.0145,4.0171,4.0294,4.0274,4.031,4.0373,4.0423,4.0436,4.0448,4.049,4.0505,4.032,4.032,4.032,0,3.9731,3.9817,3.9817,3.9881,3.9911,3.9888,3.9959,3.9986,4.0042,4.0062,4.0035,4.0146,4.0171,4.0267,4.0297,4.0319,4.0337,4.0305,4.0435,4.0447,4.0458,4.0497,4.0513,4.0324,4.0323,4.0323,4.0323,0,3.9879,3.9939,3.9992,4.0046,4.0082,4.015,4.0158,4.0195,4.0188,4.0198,4.0278,4.0307,4.036,4.0383,4.0377,4.0478,4.0461,4.0435,4.0385,4.0479,4.0515,4.0531,4.0329,4.0328,4.0327,4.0326,0,0,4.0027,4.0079,4.0098,4.0121,4.0165,4.021,4.0276,4.0329,4.0359,4.0398,4.0451,4.0527,4.0502,4.0532,4.0529,4.0573,4.0665,4.054,4.0541,4.0561,4.0775,4.0793,4.0811,4.0653,4.0656,4.0658,4.077,0,4.0143,4.0258,4.0258,4.0364,4.0418,4.0396,4.0452,4.0484,4.0496,4.0542,4.0554,4.0607,4.0571,4.0588,4.0631,4.0645,4.0708,4.0637,4.07,4.0702,4.0689,4.083,4.085,4.0955,4.0785,4.0788,4.0789,0,4.0293,4.0336,4.0448,4.0481,4.0504,4.0555,4.0602,4.0647,4.0682,4.0687,4.0719,4.0709,4.0773,4.0723,4.0811,4.0762,4.0788,4.0799,4.0803,4.0807,4.075,4.0836,4.0989,4.1003,4.0813,4.0811,4.0809,0,4.0387,4.0473,4.055,4.0571,4.0613,4.0649,4.0668,4.0699,4.073,4.0771,4.0791,4.0839,4.0865,4.0901,4.0903,4.0867,4.099,4.0941,4.0994,4.0994,4.102,4.1018,4.1176,4.104,4.104,4.104,4.1039,0,4.0514,4.0583,4.0592,4.0639,4.0714,4.0714,4.0787,4.0803,4.0831,4.088,4.0864,4.0909,4.091,4.0956,4.0958,4.1029,4.1041,4.1045,4.1044,4.1045,4.1045,4.1061,4.1053,4.1044,4.1043,4.1042,4.1042,0,4.0631,4.0641,4.0723,4.0755,4.0765,4.0819,4.0846,4.089,4.0899,4.0961,4.0975,4.0989,4.1042,4.1048,4.111,4.1111,4.1196,4.1189,4.1184,4.1182,4.1234,4.1228,4.1407,4.1429,4.1281,4.1282,4.1283,0,4.0711,4.0763,4.0801,4.0832,4.0853,4.0905,4.0936,4.0937,4.097,4.1012,4.1051,4.1102,4.1143,4.1229,4.1244,4.129,4.1283,4.1342,4.1289,4.1288,4.1281,4.1277,4.1281,4.1352,4.1353,4.1355,4.1356,0,4.0851,4.0853,4.0899,4.0947,4.0984,4.1022,4.1057,4.1083,4.1088,4.1126,4.118,4.1212,4.1275,4.1325,4.1371,4.1389,4.1372,4.1372,4.1387,4.1387,4.1382,4.1383,4.121,4.1368,4.1367,4.1366,4.1365,4.1365,4.095,4.0994,4.1027,4.1079,4.1105,4.1138,4.118,4.1195,4.124,4.1292,4.1289,4.1348,4.138,4.1439,4.146,4.1505,4.1485,4.1507,4.1512,4.1517,4.1521,4.1376,4.1514,4.1514,4.1513,4.1513,4.1513,0,4.1087,4.1107,4.1154,4.1204,4.1244,4.1226,4.1263,4.1297,4.135,4.1381,4.1422,4.1483,4.1531,4.155,4.1597,4.1629,4.1623,4.1642,4.1638,4.1642,4.1537,4.1519,4.1646,4.1646,4.1646,4.1646,4.1646,4.1646,4.1163,4.1235,4.1241,4.1326,4.1345,4.1403,4.1426,4.1455,4.148,4.1549,4.1589,4.1602,4.1627,4.1676,4.1719,4.1723,4.174,4.1761,4.1762,4.1663,4.165,4.1637,4.1619,4.1765,4.1765,4.1862,4.1863,4.1864]}]]